,,,PA_Meas_PMT16A,,PR_Meas_QMR101_102,,RH_Meas_QMH101,,SR_Meas_QMS101,,TA_Meas_QMH101,,GenWind,,GenWind,
date,time,status,PA,status,PR,status,RH,status,SR,status,TA,status,DirAvg,status,SpdAvg,
2009-12-21, 00:00:04,VALID,1003.5,VALID,0,VALID,94.2945,VALID,0,VALID,21.7895,VALID,35,VALID,0,
2009-12-21, 00:01:04,VALID,1003.49,VALID,0,VALID,94.2945,VALID,0,VALID,21.7895,VALID,35,VALID,0,
2009-12-21, 00:02:04,VALID,1003.53,VALID,0,VALID,94.2945,VALID,0,VALID,21.8106,VALID,35,VALID,0,
2009-12-21, 00:03:04,VALID,1003.51,VALID,0,VALID,94.3097,VALID,0,VALID,21.8106,VALID,35,VALID,0,
2009-12-21, 00:04:04,VALID,1003.54,VALID,0,VALID,94.3174,VALID,0,VALID,21.8106,VALID,35,VALID,0,
2009-12-21, 00:05:04,VALID,1003.53,VALID,0,VALID,94.3097,VALID,0,VALID,21.8301,VALID,35,VALID,0,
2009-12-21, 00:06:04,VALID,1003.51,VALID,0,VALID,94.3097,VALID,0,VALID,21.8496,VALID,35,VALID,0,
2009-12-21, 00:07:04,VALID,1003.53,VALID,0,VALID,94.3021,VALID,0,VALID,21.809,VALID,27,VALID,0,
2009-12-21, 00:08:04,VALID,1003.48,VALID,0,VALID,94.325,VALID,0,VALID,21.7895,VALID,23,VALID,0,
2009-12-21, 00:09:04,VALID,1003.46,VALID,0,VALID,94.3174,VALID,0,VALID,21.8301,VALID,22,VALID,0.702734,
2009-12-21, 00:10:04,VALID,1003.44,VALID,0,VALID,94.3326,VALID,0,VALID,21.8106,VALID,22,VALID,0.665234,
2009-12-21, 00:11:04,VALID,1003.42,VALID,0,VALID,94.264,VALID,0,VALID,21.7911,VALID,22,VALID,0.692969,
2009-12-21, 00:12:04,VALID,1003.4,VALID,0,VALID,94.3021,VALID,0,VALID,21.7716,VALID,22,VALID,0.554688,
2009-12-21, 00:13:04,VALID,1003.38,VALID,0,VALID,94.2868,VALID,0,VALID,21.7131,VALID,22,VALID,0.559375,
2009-12-21, 00:14:04,VALID,1003.34,VALID,0,VALID,94.3174,VALID,0,VALID,21.6936,VALID,33,VALID,0.209375,
2009-12-21, 00:15:04,VALID,1003.34,VALID,0,VALID,94.3937,VALID,0,VALID,21.7115,VALID,33,VALID,0,
2009-12-21, 00:16:04,VALID,1003.36,VALID,0,VALID,94.386,VALID,0,VALID,21.7716,VALID,33,VALID,0,
2009-12-21, 00:17:04,VALID,1003.3,VALID,0,VALID,94.3631,VALID,0,VALID,21.7505,VALID,33,VALID,0,
2009-12-21, 00:18:04,VALID,1003.32,VALID,0,VALID,94.3326,VALID,0,VALID,21.731,VALID,33,VALID,0,
2009-12-21, 00:19:04,VALID,1003.31,VALID,0,VALID,94.3555,VALID,0,VALID,21.731,VALID,33,VALID,0,
2009-12-21, 00:20:04,VALID,1003.27,VALID,0,VALID,94.386,VALID,0,VALID,21.7716,VALID,33,VALID,0,
2009-12-21, 00:21:04,VALID,1003.25,VALID,0,VALID,94.3708,VALID,0,VALID,21.77,VALID,33,VALID,0,
2009-12-21, 00:22:04,VALID,1003.25,VALID,0,VALID,94.3708,VALID,0,VALID,21.7911,VALID,33,VALID,0,
2009-12-21, 00:23:04,VALID,1003.26,VALID,0,VALID,94.3631,VALID,0,VALID,21.7505,VALID,33,VALID,0,
2009-12-21, 00:24:04,VALID,1003.27,VALID,0,VALID,94.3784,VALID,0,VALID,21.7505,VALID,33,VALID,0,
2009-12-21, 00:25:04,VALID,1003.27,VALID,0,VALID,94.3708,VALID,0,VALID,21.7911,VALID,33,VALID,0,
2009-12-21, 00:26:04,VALID,1003.27,VALID,0,VALID,94.3784,VALID,0,VALID,21.7505,VALID,32,VALID,0,
2009-12-21, 00:27:04,VALID,1003.26,VALID,0,VALID,94.3631,VALID,0,VALID,21.7716,VALID,32,VALID,0,
2009-12-21, 00:28:04,VALID,1003.25,VALID,0,VALID,94.4089,VALID,0,VALID,21.7895,VALID,32,VALID,0,
2009-12-21, 00:29:04,VALID,1003.22,VALID,0,VALID,94.3937,VALID,0,VALID,21.809,VALID,32,VALID,0,
2009-12-21, 00:30:04,VALID,1003.19,VALID,0,VALID,94.4013,VALID,0,VALID,21.848,VALID,32,VALID,0,
2009-12-21, 00:31:04,VALID,1003.19,VALID,0,VALID,94.4165,VALID,0,VALID,21.8675,VALID,32,VALID,0,
2009-12-21, 00:32:04,VALID,1003.16,VALID,0,VALID,94.4089,VALID,0,VALID,21.9065,VALID,32,VALID,0,
2009-12-21, 00:33:04,VALID,1003.18,VALID,0,VALID,94.4089,VALID,0,VALID,21.9277,VALID,32,VALID,0,
2009-12-21, 00:34:04,VALID,1003.18,VALID,0,VALID,94.4013,VALID,0,VALID,21.926,VALID,32,VALID,0,
2009-12-21, 00:35:04,VALID,1003.17,VALID,0,VALID,94.4013,VALID,0,VALID,21.926,VALID,52,VALID,0,
2009-12-21, 00:36:04,VALID,1003.17,VALID,0,VALID,94.3937,VALID,0,VALID,21.9455,VALID,52,VALID,0,
2009-12-21, 00:37:04,VALID,1003.16,VALID,0,VALID,94.4013,VALID,0,VALID,21.9845,VALID,50,VALID,0,
2009-12-21, 00:38:04,VALID,1003.16,VALID,0,VALID,94.386,VALID,0,VALID,21.965,VALID,49,VALID,0,
2009-12-21, 00:39:04,VALID,1003.15,VALID,0,VALID,94.3784,VALID,0,VALID,21.9845,VALID,47,VALID,0,
2009-12-21, 00:40:04,VALID,1003.15,VALID,0,VALID,94.3937,VALID,0,VALID,21.9845,VALID,47,VALID,0,
2009-12-21, 00:41:04,VALID,1003.13,VALID,0,VALID,94.3708,VALID,0,VALID,21.9845,VALID,47,VALID,0,
2009-12-21, 00:42:04,VALID,1003.14,VALID,0,VALID,94.3555,VALID,0,VALID,22.004,VALID,47,VALID,0,
2009-12-21, 00:43:04,VALID,1003.12,VALID,0,VALID,94.3708,VALID,0,VALID,22.0235,VALID,47,VALID,0,
2009-12-21, 00:44:04,VALID,1003.09,VALID,0,VALID,94.3784,VALID,0,VALID,22.043,VALID,47,VALID,0,
2009-12-21, 00:45:04,VALID,1003.08,VALID,0,VALID,94.3784,VALID,0,VALID,22.0837,VALID,47,VALID,0,
2009-12-21, 00:46:04,VALID,1003.03,VALID,0,VALID,94.3784,VALID,0,VALID,22.082,VALID,47,VALID,0,
2009-12-21, 00:47:04,VALID,1003.03,VALID,0,VALID,94.3708,VALID,0,VALID,22.1015,VALID,47,VALID,0,
2009-12-21, 00:48:04,VALID,1002.99,VALID,0,VALID,94.3631,VALID,0,VALID,22.1015,VALID,47,VALID,0,
2009-12-21, 00:49:04,VALID,1002.97,VALID,0,VALID,94.3631,VALID,0,VALID,22.1422,VALID,47,VALID,0,
2009-12-21, 00:50:04,VALID,1002.96,VALID,0,VALID,94.3708,VALID,0,VALID,22.1812,VALID,47,VALID,0,
2009-12-21, 00:51:04,VALID,1002.94,VALID,0,VALID,94.3326,VALID,0,VALID,22.1812,VALID,47,VALID,0,
2009-12-21, 00:52:04,VALID,1002.94,VALID,0,VALID,94.3326,VALID,0,VALID,22.1405,VALID,4,VALID,0,
2009-12-21, 00:53:04,VALID,1002.91,VALID,0,VALID,94.3479,VALID,0,VALID,22.1795,VALID,360,VALID,0,
2009-12-21, 00:54:04,VALID,1002.88,VALID,0,VALID,94.3631,VALID,0,VALID,22.199,VALID,355,VALID,0,
2009-12-21, 00:55:04,VALID,1002.86,VALID,0,VALID,94.3174,VALID,0,VALID,22.2397,VALID,355,VALID,0,
2009-12-21, 00:56:04,VALID,1002.84,VALID,0,VALID,94.325,VALID,0,VALID,22.2381,VALID,355,VALID,0,
2009-12-21, 00:57:04,VALID,1002.82,VALID,0,VALID,94.3097,VALID,0,VALID,22.2397,VALID,355,VALID,0,
2009-12-21, 00:58:04,VALID,1002.81,VALID,0,VALID,94.3174,VALID,0,VALID,22.2381,VALID,355,VALID,0,
2009-12-21, 00:59:04,VALID,1002.82,VALID,0,VALID,94.3174,VALID,0,VALID,22.2592,VALID,355,VALID,0,
2009-12-21, 01:00:04,VALID,1002.8,VALID,0,VALID,94.3174,VALID,0,VALID,22.2592,VALID,355,VALID,0,
2009-12-21, 01:01:04,VALID,1002.79,VALID,0,VALID,94.3174,VALID,0,VALID,22.2592,VALID,355,VALID,0,
2009-12-21, 01:02:05,VALID,1002.79,VALID,0,VALID,94.3021,VALID,0,VALID,22.2592,VALID,355,VALID,0,
2009-12-21, 01:03:05,VALID,1002.76,VALID,0,VALID,94.2792,VALID,0,VALID,22.2576,VALID,355,VALID,0,
2009-12-21, 01:04:05,VALID,1002.72,VALID,0,VALID,94.2716,VALID,0,VALID,22.2592,VALID,355,VALID,0,
2009-12-21, 01:05:05,VALID,1002.75,VALID,0,VALID,94.2792,VALID,0,VALID,22.2576,VALID,355,VALID,0,
2009-12-21, 01:06:05,VALID,1002.71,VALID,0,VALID,94.2792,VALID,0,VALID,22.2576,VALID,355,VALID,0,
2009-12-21, 01:07:05,VALID,1002.72,VALID,0,VALID,94.264,VALID,0,VALID,22.2771,VALID,355,VALID,0,
2009-12-21, 01:08:05,VALID,1002.73,VALID,0,VALID,94.2868,VALID,0,VALID,22.2771,VALID,355,VALID,0,
2009-12-21, 01:09:05,VALID,1002.76,VALID,0,VALID,94.2716,VALID,0,VALID,22.3161,VALID,355,VALID,0,
2009-12-21, 01:10:05,VALID,1002.81,VALID,0,VALID,94.264,VALID,0,VALID,22.2966,VALID,5,VALID,0,
2009-12-21, 01:11:05,VALID,1002.82,VALID,0,VALID,94.2716,VALID,0,VALID,22.3161,VALID,22,VALID,1.69531,
2009-12-21, 01:12:05,VALID,1002.8,VALID,0,VALID,94.2411,VALID,0,VALID,22.3144,VALID,9,VALID,2.06758,
2009-12-21, 01:13:05,VALID,1002.84,VALID,0,VALID,94.18,VALID,0.112286,VALID,22.3534,VALID,25,VALID,1.48594,
2009-12-21, 01:14:05,VALID,1002.79,VALID,0,VALID,94.0961,VALID,0.112286,VALID,22.3534,VALID,39,VALID,1.7375,
2009-12-21, 01:15:05,VALID,1002.76,VALID,0,VALID,94.0885,VALID,0.112286,VALID,22.3729,VALID,26,VALID,1.63398,
2009-12-21, 01:16:05,VALID,1002.73,VALID,0,VALID,94.0732,VALID,0.112286,VALID,22.3924,VALID,14,VALID,1.42617,
2009-12-21, 01:17:05,VALID,1002.69,VALID,0,VALID,93.9893,VALID,0,VALID,22.4509,VALID,37,VALID,1.6457,
2009-12-21, 01:18:05,VALID,1002.68,VALID,0,VALID,93.8443,VALID,0,VALID,22.4721,VALID,39,VALID,2.06406,
2009-12-21, 01:19:05,VALID,1002.7,VALID,0,VALID,93.6917,VALID,0.112286,VALID,22.4314,VALID,50,VALID,2.11719,
2009-12-21, 01:20:05,VALID,1002.68,VALID,0,VALID,93.646,VALID,0.112286,VALID,22.4314,VALID,52,VALID,1.91289,
2009-12-21, 01:21:05,VALID,1002.67,VALID,0,VALID,93.6231,VALID,0.112286,VALID,22.4314,VALID,56,VALID,2.05898,
2009-12-21, 01:22:05,VALID,1002.69,VALID,0,VALID,93.5544,VALID,0.112286,VALID,22.4119,VALID,45,VALID,1.98984,
2009-12-21, 01:23:05,VALID,1002.69,VALID,0,VALID,93.6307,VALID,0.112286,VALID,22.4509,VALID,47,VALID,1.63516,
2009-12-21, 01:24:05,VALID,1002.68,VALID,0,VALID,93.4934,VALID,0,VALID,22.4314,VALID,46,VALID,1.90469,
2009-12-21, 01:25:05,VALID,1002.62,VALID,0,VALID,93.4857,VALID,0.112286,VALID,22.4314,VALID,67,VALID,1.20703,
2009-12-21, 01:26:05,VALID,1002.63,VALID,0.5,VALID,93.4171,VALID,0.112286,VALID,22.4314,VALID,79,VALID,0.943359,
2009-12-21, 01:27:05,VALID,1002.6,VALID,0,VALID,93.4171,VALID,0,VALID,22.4526,VALID,86,VALID,0.534766,
2009-12-21, 01:28:05,VALID,1002.6,VALID,0,VALID,93.4094,VALID,0,VALID,22.4526,VALID,89,VALID,0.9,
2009-12-21, 01:29:05,VALID,1002.57,VALID,0,VALID,93.4247,VALID,0.112286,VALID,22.4509,VALID,98,VALID,0.9375,
2009-12-21, 01:30:05,VALID,1002.6,VALID,0,VALID,93.44,VALID,0,VALID,22.4916,VALID,98,VALID,0.860937,
2009-12-21, 01:31:05,VALID,1002.54,VALID,0,VALID,93.4628,VALID,0,VALID,22.5111,VALID,99,VALID,0.867578,
2009-12-21, 01:32:05,VALID,1002.5,VALID,0,VALID,93.4247,VALID,0,VALID,22.4704,VALID,99,VALID,1.13125,
2009-12-21, 01:33:05,VALID,1002.51,VALID,0,VALID,93.4171,VALID,0.112286,VALID,22.5111,VALID,111,VALID,0.819922,
2009-12-21, 01:34:05,VALID,1002.47,VALID,0,VALID,93.4094,VALID,0,VALID,22.5306,VALID,111,VALID,0.980859,
2009-12-21, 01:35:05,VALID,1002.47,VALID,0,VALID,93.3637,VALID,0,VALID,22.5094,VALID,113,VALID,0.791797,
2009-12-21, 01:36:05,VALID,1002.45,VALID,0,VALID,93.3179,VALID,0.112286,VALID,22.5094,VALID,106,VALID,1.2125,
2009-12-21, 01:37:05,VALID,1002.43,VALID,0,VALID,93.3255,VALID,0,VALID,22.5501,VALID,87,VALID,1.32617,
2009-12-21, 01:38:05,VALID,1002.42,VALID,0,VALID,93.3026,VALID,0.112286,VALID,22.5484,VALID,85,VALID,1.32305,
2009-12-21, 01:39:05,VALID,1002.39,VALID,0.5,VALID,93.2797,VALID,0,VALID,22.5484,VALID,105,VALID,0.951563,
2009-12-21, 01:40:05,VALID,1002.35,VALID,0,VALID,93.3255,VALID,0,VALID,22.5484,VALID,116,VALID,1.00039,
2009-12-21, 01:41:05,VALID,1002.33,VALID,0,VALID,93.3713,VALID,0,VALID,22.6087,VALID,130,VALID,0.983594,
2009-12-21, 01:42:05,VALID,1002.28,VALID,0,VALID,93.3866,VALID,0,VALID,22.6104,VALID,127,VALID,1.00742,
2009-12-21, 01:43:05,VALID,1002.24,VALID,0,VALID,93.4018,VALID,0,VALID,22.5892,VALID,142,VALID,0.633203,
2009-12-21, 01:44:05,VALID,1002.24,VALID,0,VALID,93.4171,VALID,0,VALID,22.6087,VALID,154,VALID,0.754687,
2009-12-21, 01:45:05,VALID,1002.21,VALID,0,VALID,93.44,VALID,0,VALID,22.6087,VALID,165,VALID,0.849219,
2009-12-21, 01:46:05,VALID,1002.19,VALID,0,VALID,93.4171,VALID,0,VALID,22.6282,VALID,163,VALID,0.696484,
2009-12-21, 01:47:05,VALID,1002.19,VALID,0,VALID,93.4323,VALID,0,VALID,22.6477,VALID,175,VALID,0.61875,
2009-12-21, 01:48:05,VALID,1002.17,VALID,0,VALID,93.4323,VALID,0,VALID,22.6867,VALID,176,VALID,0.421875,
2009-12-21, 01:49:05,VALID,1002.17,VALID,0,VALID,93.4018,VALID,0,VALID,22.6867,VALID,176,VALID,0.235938,
2009-12-21, 01:50:05,VALID,1002.18,VALID,0,VALID,93.3484,VALID,0,VALID,22.6867,VALID,176,VALID,0,
2009-12-21, 01:51:05,VALID,1002.17,VALID,0,VALID,93.295,VALID,0,VALID,22.6867,VALID,176,VALID,0,
2009-12-21, 01:52:05,VALID,1002.16,VALID,0,VALID,93.2645,VALID,0,VALID,22.6867,VALID,176,VALID,0,
2009-12-21, 01:53:05,VALID,1002.15,VALID,0,VALID,93.1805,VALID,0,VALID,22.6672,VALID,176,VALID,0,
2009-12-21, 01:54:05,VALID,1002.11,VALID,0,VALID,93.1195,VALID,0,VALID,22.6282,VALID,176,VALID,0,
2009-12-21, 01:55:05,VALID,1002.13,VALID,0,VALID,93.0127,VALID,0,VALID,22.5892,VALID,39,VALID,0,
2009-12-21, 01:56:05,VALID,1002.11,VALID,0,VALID,92.9593,VALID,0,VALID,22.5306,VALID,39,VALID,0.530859,
2009-12-21, 01:57:05,VALID,1002.11,VALID,0,VALID,92.8677,VALID,0,VALID,22.5128,VALID,39,VALID,0,
2009-12-21, 01:58:05,VALID,1002.08,VALID,0,VALID,92.8296,VALID,0,VALID,22.4331,VALID,39,VALID,0,
2009-12-21, 01:59:05,VALID,1002.09,VALID,0,VALID,92.7914,VALID,0,VALID,22.3746,VALID,39,VALID,0,
2009-12-21, 02:00:05,VALID,1002.09,VALID,0,VALID,92.9822,VALID,0,VALID,22.3763,VALID,39,VALID,0,
2009-12-21, 02:01:05,VALID,1002.08,VALID,0,VALID,93.0508,VALID,0,VALID,22.3568,VALID,39,VALID,0,
2009-12-21, 02:02:05,VALID,1002.09,VALID,0,VALID,93.15,VALID,0,VALID,22.3373,VALID,39,VALID,0,
2009-12-21, 02:03:05,VALID,1002.07,VALID,0,VALID,93.3255,VALID,0,VALID,22.3161,VALID,39,VALID,0,
2009-12-21, 02:04:05,VALID,1002.06,VALID,0,VALID,93.4171,VALID,0,VALID,22.3161,VALID,39,VALID,0,
2009-12-21, 02:05:05,VALID,1002.03,VALID,0,VALID,93.44,VALID,0,VALID,22.2966,VALID,54,VALID,0,
2009-12-21, 02:06:05,VALID,1002.02,VALID,0,VALID,93.5315,VALID,0,VALID,22.3373,VALID,56,VALID,1.16914,
2009-12-21, 02:07:05,VALID,1002.03,VALID,0,VALID,93.5239,VALID,0,VALID,22.2966,VALID,60,VALID,0.886328,
2009-12-21, 02:08:05,VALID,1002.01,VALID,0,VALID,93.4476,VALID,0,VALID,22.2576,VALID,58,VALID,0.237109,
2009-12-21, 02:09:05,VALID,1002,VALID,0,VALID,93.4171,VALID,0,VALID,22.2592,VALID,58,VALID,0,
2009-12-21, 02:10:05,VALID,1001.97,VALID,0,VALID,93.4018,VALID,0,VALID,22.2007,VALID,58,VALID,0,
2009-12-21, 02:11:05,VALID,1002,VALID,0,VALID,93.4247,VALID,0,VALID,22.1795,VALID,58,VALID,0,
2009-12-21, 02:12:05,VALID,1001.99,VALID,0,VALID,93.4705,VALID,0,VALID,22.1812,VALID,58,VALID,0,
2009-12-21, 02:13:05,VALID,1001.99,VALID,0,VALID,93.501,VALID,0,VALID,22.1405,VALID,58,VALID,0,
2009-12-21, 02:14:05,VALID,1001.99,VALID,0,VALID,93.5163,VALID,0,VALID,22.121,VALID,58,VALID,0,
2009-12-21, 02:15:05,VALID,1001.98,VALID,0,VALID,93.5315,VALID,0,VALID,22.1015,VALID,58,VALID,0,
2009-12-21, 02:16:05,VALID,1001.97,VALID,0,VALID,93.6002,VALID,0,VALID,22.1227,VALID,58,VALID,0,
2009-12-21, 02:17:05,VALID,1001.95,VALID,0,VALID,93.6688,VALID,0,VALID,22.1422,VALID,58,VALID,0,
2009-12-21, 02:18:05,VALID,1001.95,VALID,0,VALID,93.7375,VALID,0,VALID,22.1405,VALID,58,VALID,0,
2009-12-21, 02:19:05,VALID,1001.91,VALID,0,VALID,93.7604,VALID,0,VALID,22.1405,VALID,58,VALID,0,
2009-12-21, 02:20:05,VALID,1001.95,VALID,0,VALID,93.7604,VALID,0,VALID,22.121,VALID,58,VALID,0,
2009-12-21, 02:21:05,VALID,1001.97,VALID,0,VALID,93.7604,VALID,0,VALID,22.1015,VALID,58,VALID,0,
2009-12-21, 02:22:05,VALID,1001.95,VALID,0,VALID,93.8138,VALID,0,VALID,22.1015,VALID,58,VALID,0,
2009-12-21, 02:23:05,VALID,1001.97,VALID,0,VALID,93.7985,VALID,0,VALID,22.1015,VALID,58,VALID,0,
2009-12-21, 02:24:05,VALID,1001.95,VALID,0,VALID,93.8214,VALID,0,VALID,22.1015,VALID,58,VALID,0,
2009-12-21, 02:25:05,VALID,1001.95,VALID,0,VALID,93.8443,VALID,0,VALID,22.121,VALID,58,VALID,0,
2009-12-21, 02:26:05,VALID,1001.93,VALID,0,VALID,93.8596,VALID,0,VALID,22.1422,VALID,58,VALID,0,
2009-12-21, 02:27:05,VALID,1001.94,VALID,0,VALID,93.9206,VALID,0,VALID,22.121,VALID,58,VALID,0,
2009-12-21, 02:28:05,VALID,1001.95,VALID,0,VALID,93.9206,VALID,0,VALID,22.1795,VALID,63,VALID,0,
2009-12-21, 02:29:05,VALID,1001.97,VALID,0,VALID,93.9511,VALID,0,VALID,22.1795,VALID,86,VALID,0,
2009-12-21, 02:30:05,VALID,1001.96,VALID,0,VALID,93.9664,VALID,0,VALID,22.199,VALID,86,VALID,0,
2009-12-21, 02:31:05,VALID,1001.97,VALID,0,VALID,93.9664,VALID,0,VALID,22.1795,VALID,86,VALID,0,
2009-12-21, 02:32:05,VALID,1001.96,VALID,0,VALID,93.9817,VALID,0,VALID,22.1795,VALID,86,VALID,0,
2009-12-21, 02:33:05,VALID,1001.96,VALID,0,VALID,93.9817,VALID,0,VALID,22.1795,VALID,86,VALID,0,
2009-12-21, 02:34:05,VALID,1001.97,VALID,0,VALID,93.9893,VALID,0,VALID,22.1795,VALID,86,VALID,0,
2009-12-21, 02:35:05,VALID,1002.01,VALID,0,VALID,93.9817,VALID,0,VALID,22.1812,VALID,86,VALID,0,
2009-12-21, 02:36:05,VALID,1002.04,VALID,0,VALID,93.9511,VALID,0,VALID,22.1617,VALID,86,VALID,0,
2009-12-21, 02:37:05,VALID,1002.05,VALID,0,VALID,93.9511,VALID,0,VALID,22.121,VALID,86,VALID,0,
2009-12-21, 02:38:05,VALID,1002.09,VALID,0,VALID,93.9817,VALID,0,VALID,22.1617,VALID,86,VALID,0,
2009-12-21, 02:39:05,VALID,1002.11,VALID,0,VALID,93.9664,VALID,0,VALID,22.1405,VALID,86,VALID,0,
2009-12-21, 02:40:05,VALID,1002.14,VALID,0,VALID,93.9511,VALID,0,VALID,22.1422,VALID,86,VALID,0,
2009-12-21, 02:41:05,VALID,1002.12,VALID,0,VALID,93.9588,VALID,0,VALID,22.1015,VALID,86,VALID,0,
2009-12-21, 02:42:05,VALID,1002.12,VALID,0,VALID,93.9969,VALID,0,VALID,22.121,VALID,84,VALID,0,
2009-12-21, 02:43:05,VALID,1002.14,VALID,0,VALID,94.0427,VALID,0,VALID,22.16,VALID,82,VALID,0,
2009-12-21, 02:44:05,VALID,1002.14,VALID,0,VALID,94.0808,VALID,0,VALID,22.199,VALID,7,VALID,0,
2009-12-21, 02:45:05,VALID,1002.11,VALID,0,VALID,94.0656,VALID,0,VALID,22.2397,VALID,7,VALID,0,
2009-12-21, 02:46:05,VALID,1002.11,VALID,0,VALID,94.0427,VALID,0,VALID,22.2186,VALID,7,VALID,0,
2009-12-21, 02:47:05,VALID,1002.09,VALID,0,VALID,94.058,VALID,0,VALID,22.2202,VALID,10,VALID,0,
2009-12-21, 02:48:05,VALID,1002.07,VALID,0,VALID,94.0503,VALID,0,VALID,22.2186,VALID,10,VALID,0,
2009-12-21, 02:49:05,VALID,1002.04,VALID,0,VALID,94.0808,VALID,0,VALID,22.2397,VALID,10,VALID,0,
2009-12-21, 02:50:05,VALID,1002.06,VALID,0,VALID,94.058,VALID,0,VALID,22.2381,VALID,10,VALID,0,
2009-12-21, 02:51:05,VALID,1002.01,VALID,0,VALID,93.9893,VALID,0,VALID,22.2202,VALID,10,VALID,0,
2009-12-21, 02:52:05,VALID,1002,VALID,0,VALID,93.9511,VALID,0,VALID,22.16,VALID,10,VALID,0,
2009-12-21, 02:53:05,VALID,1001.98,VALID,0,VALID,93.9283,VALID,0,VALID,22.1015,VALID,354,VALID,0,
2009-12-21, 02:54:05,VALID,1001.98,VALID,0,VALID,93.9588,VALID,0,VALID,22.121,VALID,337,VALID,0,
2009-12-21, 02:55:05,VALID,1001.98,VALID,0,VALID,93.9511,VALID,0,VALID,22.1015,VALID,337,VALID,0,
2009-12-21, 02:56:05,VALID,1002,VALID,0,VALID,93.974,VALID,0,VALID,22.082,VALID,337,VALID,0,
2009-12-21, 02:57:05,VALID,1001.96,VALID,0,VALID,93.9588,VALID,0,VALID,22.0625,VALID,337,VALID,0,
2009-12-21, 02:58:05,VALID,1001.97,VALID,0,VALID,93.9206,VALID,0,VALID,22.0447,VALID,337,VALID,0,
2009-12-21, 02:59:05,VALID,1001.96,VALID,0,VALID,93.9206,VALID,0,VALID,22.004,VALID,337,VALID,0,
2009-12-21, 03:00:05,VALID,1001.98,VALID,0,VALID,93.8443,VALID,0,VALID,21.9472,VALID,337,VALID,0,
2009-12-21, 03:01:05,VALID,1001.96,VALID,0,VALID,93.8672,VALID,0,VALID,21.8887,VALID,337,VALID,0,
2009-12-21, 03:02:05,VALID,1001.94,VALID,0,VALID,93.8748,VALID,0,VALID,21.848,VALID,337,VALID,0,
2009-12-21, 03:03:05,VALID,1001.95,VALID,0,VALID,93.9588,VALID,0,VALID,21.8675,VALID,337,VALID,0,
2009-12-21, 03:04:05,VALID,1001.93,VALID,0,VALID,93.9588,VALID,0,VALID,21.8675,VALID,337,VALID,0,
2009-12-21, 03:05:05,VALID,1001.93,VALID,0,VALID,94.0656,VALID,0,VALID,21.887,VALID,337,VALID,0,
2009-12-21, 03:06:05,VALID,1001.94,VALID,0,VALID,94.0808,VALID,0,VALID,21.9065,VALID,337,VALID,0,
2009-12-21, 03:07:05,VALID,1001.92,VALID,0,VALID,94.119,VALID,0,VALID,21.9455,VALID,337,VALID,0,
2009-12-21, 03:08:05,VALID,1001.93,VALID,0,VALID,94.1037,VALID,0,VALID,21.9455,VALID,337,VALID,0,
2009-12-21, 03:09:05,VALID,1001.93,VALID,0,VALID,94.1419,VALID,0,VALID,21.9455,VALID,337,VALID,0,
2009-12-21, 03:10:05,VALID,1001.92,VALID,0,VALID,94.1266,VALID,0,VALID,21.9472,VALID,337,VALID,0,
2009-12-21, 03:11:05,VALID,1001.89,VALID,0,VALID,94.18,VALID,0,VALID,21.9455,VALID,337,VALID,0,
2009-12-21, 03:12:05,VALID,1001.89,VALID,0,VALID,94.2258,VALID,0,VALID,21.9862,VALID,337,VALID,0,
2009-12-21, 03:13:05,VALID,1001.89,VALID,0,VALID,94.2029,VALID,0,VALID,21.9862,VALID,337,VALID,0,
2009-12-21, 03:14:05,VALID,1001.9,VALID,0,VALID,94.2105,VALID,0,VALID,22.0057,VALID,337,VALID,0,
2009-12-21, 03:15:05,VALID,1001.96,VALID,0,VALID,94.1877,VALID,0,VALID,21.9862,VALID,337,VALID,0,
2009-12-21, 03:16:05,VALID,1001.92,VALID,0,VALID,94.2334,VALID,0,VALID,21.9845,VALID,337,VALID,0,
2009-12-21, 03:17:05,VALID,1001.95,VALID,0,VALID,94.2334,VALID,0,VALID,22.0252,VALID,337,VALID,0,
2009-12-21, 03:18:05,VALID,1001.92,VALID,0,VALID,94.2105,VALID,0,VALID,22.0057,VALID,337,VALID,0,
2009-12-21, 03:19:05,VALID,1001.93,VALID,0,VALID,94.1953,VALID,0,VALID,22.0057,VALID,337,VALID,0,
2009-12-21, 03:20:05,VALID,1001.96,VALID,0,VALID,94.2029,VALID,0,VALID,21.9667,VALID,337,VALID,0,
2009-12-21, 03:21:05,VALID,1001.95,VALID,0,VALID,94.2182,VALID,0,VALID,21.9455,VALID,337,VALID,0,
2009-12-21, 03:22:05,VALID,1001.93,VALID,0,VALID,94.18,VALID,0,VALID,21.887,VALID,337,VALID,0,
2009-12-21, 03:23:05,VALID,1001.93,VALID,0,VALID,94.1877,VALID,0,VALID,21.8301,VALID,337,VALID,0,
2009-12-21, 03:24:05,VALID,1001.93,VALID,0,VALID,94.2182,VALID,0,VALID,21.8106,VALID,337,VALID,0,
2009-12-21, 03:25:05,VALID,1001.92,VALID,0,VALID,94.2182,VALID,0,VALID,21.8106,VALID,337,VALID,0,
2009-12-21, 03:26:05,VALID,1001.94,VALID,0,VALID,94.2716,VALID,0,VALID,21.809,VALID,337,VALID,0,
2009-12-21, 03:27:05,VALID,1001.93,VALID,0,VALID,94.3097,VALID,0,VALID,21.8658,VALID,337,VALID,0,
2009-12-21, 03:28:05,VALID,1001.94,VALID,0,VALID,94.3174,VALID,0,VALID,21.9065,VALID,337,VALID,0,
2009-12-21, 03:29:05,VALID,1001.93,VALID,0,VALID,94.3479,VALID,0,VALID,21.9438,VALID,337,VALID,0,
2009-12-21, 03:30:05,VALID,1001.97,VALID,0,VALID,94.3326,VALID,0,VALID,21.9633,VALID,337,VALID,0,
2009-12-21, 03:31:05,VALID,1001.95,VALID,0,VALID,94.3021,VALID,0,VALID,22.004,VALID,337,VALID,0,
2009-12-21, 03:32:05,VALID,1001.96,VALID,0,VALID,94.264,VALID,0,VALID,22.004,VALID,337,VALID,0,
2009-12-21, 03:33:05,VALID,1001.96,VALID,0,VALID,94.2258,VALID,0,VALID,21.926,VALID,337,VALID,0,
2009-12-21, 03:34:05,VALID,1002,VALID,0,VALID,94.2258,VALID,0,VALID,21.8463,VALID,337,VALID,0,
2009-12-21, 03:35:05,VALID,1002.05,VALID,0,VALID,94.2258,VALID,0.112286,VALID,21.7895,VALID,337,VALID,0,
2009-12-21, 03:36:05,VALID,1002.05,VALID,0,VALID,94.2868,VALID,0,VALID,21.7683,VALID,337,VALID,0,
2009-12-21, 03:37:05,VALID,1002.07,VALID,0,VALID,94.325,VALID,0,VALID,21.7488,VALID,337,VALID,0,
2009-12-21, 03:38:05,VALID,1002.09,VALID,0,VALID,94.3326,VALID,0,VALID,21.7683,VALID,337,VALID,0,
2009-12-21, 03:39:05,VALID,1002.12,VALID,0,VALID,94.3326,VALID,0,VALID,21.7878,VALID,337,VALID,0,
2009-12-21, 03:40:05,VALID,1002.14,VALID,0,VALID,94.3555,VALID,0,VALID,21.8073,VALID,337,VALID,0,
2009-12-21, 03:41:05,VALID,1002.15,VALID,0,VALID,94.3708,VALID,0,VALID,21.887,VALID,337,VALID,0,
2009-12-21, 03:42:05,VALID,1002.14,VALID,0,VALID,94.3631,VALID,0,VALID,21.8887,VALID,337,VALID,0,
2009-12-21, 03:43:05,VALID,1002.13,VALID,0,VALID,94.4013,VALID,0,VALID,21.926,VALID,337,VALID,0,
2009-12-21, 03:44:05,VALID,1002.15,VALID,0,VALID,94.4089,VALID,0,VALID,21.9862,VALID,339,VALID,0,
2009-12-21, 03:45:04,VALID,1002.16,VALID,0,VALID,94.3784,VALID,0,VALID,22.004,VALID,2,VALID,0,
2009-12-21, 03:46:04,VALID,1002.15,VALID,0,VALID,94.3631,VALID,0,VALID,21.9845,VALID,4,VALID,0,
2009-12-21, 03:47:04,VALID,1002.2,VALID,0,VALID,94.4089,VALID,0,VALID,22.004,VALID,4,VALID,0,
2009-12-21, 03:48:04,VALID,1002.17,VALID,0,VALID,94.3708,VALID,0,VALID,21.9845,VALID,4,VALID,0,
2009-12-21, 03:49:04,VALID,1002.17,VALID,0,VALID,94.3708,VALID,0,VALID,21.965,VALID,4,VALID,0,
2009-12-21, 03:50:04,VALID,1002.2,VALID,0,VALID,94.3403,VALID,0,VALID,21.9455,VALID,4,VALID,0,
2009-12-21, 03:51:04,VALID,1002.22,VALID,0,VALID,94.3403,VALID,0,VALID,21.9277,VALID,4,VALID,0,
2009-12-21, 03:52:04,VALID,1002.26,VALID,0,VALID,94.3097,VALID,0,VALID,21.8285,VALID,4,VALID,0,
2009-12-21, 03:53:04,VALID,1002.25,VALID,0,VALID,94.3555,VALID,0,VALID,21.809,VALID,4,VALID,0,
2009-12-21, 03:54:04,VALID,1002.25,VALID,0,VALID,94.3784,VALID,0,VALID,21.809,VALID,4,VALID,0,
2009-12-21, 03:55:04,VALID,1002.27,VALID,0,VALID,94.3708,VALID,0,VALID,21.8285,VALID,4,VALID,0,
2009-12-21, 03:56:04,VALID,1002.27,VALID,0,VALID,94.4089,VALID,0,VALID,21.8692,VALID,4,VALID,0,
2009-12-21, 03:57:04,VALID,1002.26,VALID,0,VALID,94.4165,VALID,0,VALID,21.848,VALID,4,VALID,0,